SCP
1 1 1 1 1 1 1 1 0 0 0 0 0 0 0 0 0 0 0 0 0 0 0 0 0 0 0 1 1 1 1 1 1 1 1 1 1 1 1 1 1 0 0
1 1 1 1 1 1 1 1 0 0 0 0 0 0 0 0 0 0 0 0 0 0 0 0 0 0 0 1 1 1 1 1 1 1 1 1 1 1 1 1 1 0 0
1 1 1 1 1 1 1 1 0 0 0 0 0 0 0 0 0 0 0 0 0 0 0 0 0 0 0 1 1 1 1 1 1 1 1 1 1 1 1 1 1 1 1
1 1 1 1 1 1 1 1 0 0 0 0 0 0 0 0 0 0 0 0 0 0 0 0 0 0 0 1 1 1 1 1 1 1 1 1 1 1 1 1 1 1 1
1 1 1 1 1 1 1 1 0 0 0 0 0 0 0 0 0 0 0 0 1 1 0 0 0 0 0 0 0 1 1 1 1 1 1 0 0 1 1 1 1 1 1
1 1 1 1 1 1 1 0 0 0 0 0 0 0 0 0 0 0 0 1 1 1 1 1 1 1 1 0 0 0 1 1 1 1 0 0 1 1 1 1 1 1 1
1 1 1 1 1 1 1 1 0 0 1 0 0 0 0 0 0 0 0 1 1 1 1 1 1 1 1 1 0 0 1 1 0 0 0 0 1 1 1 1 1 1 1
1 1 1 1 1 1 1 1 1 1 1 1 1 0 0 0 0 0 0 0 1 1 1 1 1 1 1 1 0 0 0 0 0 0 0 0 1 1 1 1 1 1 1
1 1 1 1 1 1 1 1 1 1 1 1 1 1 0 0 0 0 0 0 1 1 1 1 1 1 1 0 0 0 0 0 0 0 0 0 1 1 1 1 1 1 2
1 1 1 1 1 1 1 1 0 1 1 1 0 0 0 0 0 0 0 0 0 1 1 1 1 1 1 1 0 0 0 0 0 0 0 0 0 1 1 1 1 2 2
1 1 1 1 1 1 1 0 0 0 0 0 0 0 0 0 0 0 0 0 0 1 1 1 1 1 1 0 0 0 0 0 0 0 0 0 0 0 1 1 1 2 2
1 1 1 1 1 1 0 1 1 1 0 0 0 0 0 0 0 0 0 0 0 0 0 1 0 0 0 0 0 0 0 0 0 0 0 0 0 0 0 1 1 1 2
1 1 1 1 1 1 1 1 1 1 0 0 0 0 0 0 0 0 0 0 0 0 0 0 0 0 0 0 0 0 0 0 0 0 0 0 0 0 0 0 1 1 2
1 1 1 1 0 0 1 1 0 0 0 0 0 0 0 0 0 0 0 0 0 0 0 0 0 0 0 0 0 0 0 0 0 0 0 0 0 0 0 0 1 1 2
1 1 1 0 0 0 0 0 0 0 0 0 0 0 0 0 0 0 0 0 0 0 0 0 0 0 0 0 0 0 0 0 0 0 0 0 0 0 0 0 1 2 2
1 1 0 0 0 0 0 0 0 0 0 0 0 0 0 0 0 0 0 0 0 0 0 0 0 0 0 0 0 0 0 0 0 0 0 0 0 0 0 0 1 2 2
1 1 0 0 0 0 0 0 0 0 0 0 0 0 0 0 0 0 0 0 0 0 0 0 0 0 0 0 0 0 0 0 0 0 0 0 0 0 0 0 1 1 2
1 1 0 0 0 0 0 0 0 0 0 0 0 0 0 0 0 0 0 0 0 0 0 0 0 0 0 0 0 0 0 0 0 0 0 0 0 0 0 0 1 1 1
1 1 0 0 0 0 0 0 0 0 0 0 0 0 0 0 0 0 0 0 0 0 0 0 0 0 0 0 0 0 0 0 0 0 0 0 0 0 0 0 0 1 1
1 1 0 0 0 0 0 0 0 0 0 0 0 0 0 0 0 0 0 0 0 0 0 0 0 0 0 0 0 0 0 0 0 0 0 0 0 0 0 0 0 0 0
0 1 0 0 0 0 0 0 0 0 0 0 0 0 0 0 0 0 0 0 0 0 0 0 0 0 0 0 0 0 0 0 0 0 0 0 0 0 0 0 0 0 0
0 0 0 0 0 0 0 0 0 0 0 0 0 0 0 0 0 0 0 0 0 0 0 0 0 0 0 0 0 0 0 0 0 0 0 0 0 0 0 0 0 0 0
0 0 0 0 0 0 0 0 0 0 0 0 0 0 0 0 0 0 0 0 0 0 0 0 0 0 0 0 0 0 0 0 0 0 0 0 0 0 0 0 0 0 0
0 0 0 0 0 0 0 0 0 0 0 0 0 0 0 0 0 0 0 0 0 0 0 0 0 0 0 0 0 0 0 0 0 0 0 0 0 0 0 0 0 0 0
0 0 0 0 0 0 0 0 0 0 0 0 0 0 0 0 0 0 0 0 0 0 0 0 0 0 0 0 0 0 0 0 0 0 0 0 0 0 0 0 0 0 0
0 0 0 0 0 0 0 0 0 0 0 0 0 0 0 0 0 0 0 0 0 0 0 0 0 0 0 0 0 0 0 0 0 0 0 0 0 0 0 0 0 0 0
Wind_Speed
4 5 4 5 7 9 8 9 9 9 9 9 10 10 10 10 9 9 9 9 9 9 9 9 10 10 10 11 11 11 11 10 10 10 10 10 10 10 10 10 9 7 11
5 6 5 6 8 9 8 8 8 8 8 8 9 9 9 9 9 9 9 9 9 8 8 9 10 10 10 10 10 10 10 10 9 8 8 8 9 10 10 10 10 7 11
6 7 6 6 8 9 9 8 8 8 8 8 8 8 8 8 8 8 8 8 8 8 8 9 9 10 10 10 10 9 9 8 8 7 6 4 6 9 10 10 10 10 10
6 6 6 7 9 9 8 8 8 7 7 7 7 7 7 7 7 7 7 8 8 8 8 9 9 9 9 9 9 9 8 7 7 7 4 4 5 9 10 10 10 10 10
6 6 7 7 8 9 8 8 7 7 7 7 7 7 7 7 8 8 8 8 8 8 9 9 9 9 9 8 8 8 7 7 7 6 5 5 5 9 10 10 10 10 10
6 7 7 8 9 9 8 8 7 7 7 7 7 7 7 7 7 7 8 8 8 9 9 9 9 9 9 8 8 7 7 6 5 5 5 5 4 8 10 10 10 10 10
6 7 7 7 8 8 8 7 7 6 6 6 6 6 7 7 7 7 7 8 8 8 9 9 8 8 8 8 8 7 7 7 4 4 5 5 6 10 10 10 10 10 10
6 6 7 7 8 8 7 7 6 6 6 6 6 6 6 6 6 7 7 8 8 8 8 8 8 8 8 7 7 7 7 7 5 5 5 4 7 9 9 9 9 9 9
6 6 5 5 6 7 7 6 6 6 5 6 6 6 6 6 6 6 7 7 7 8 8 8 8 7 7 7 6 6 7 7 4 3 4 4 6 7 8 8 7 8 8
5 5 5 5 5 5 4 5 5 5 6 6 6 6 6 5 5 6 5 6 7 7 8 8 7 7 7 6 5 5 5 5 3 4 3 4 6 6 7 7 6 6 7
4 3 4 4 4 4 4 4 4 5 5 5 4 5 4 2 2 3 5 6 6 7 7 7 7 6 5 4 4 4 4 2 3 3 3 5 6 6 5 5 5 6 7
4 3 3 3 4 4 3 3 2 2 2 2 2 2 2 1 2 3 5 5 5 6 6 6 5 4 3 2 2 3 2 3 3 2 3 5 5 5 5 4 4 5 5
5 4 3 3 3 3 2 2 2 1 2 2 2 1 1 2 2 2 2 2 2 4 3 3 2 1 2 2 2 2 2 2 2 2 3 4 4 4 4 4 3 4 4
5 5 4 3 3 3 3 2 2 2 1 1 1 1 1 1 1 1 1 2 2 1 2 2 1 2 2 2 2 2 2 2 2 2 2 4 3 3 3 3 2 3 3
5 5 5 4 3 3 3 2 2 2 2 2 1 1 2 1 1 1 1 2 2 2 2 2 1 2 2 2 2 2 2 2 2 2 2 4 3 3 2 1 1 2 2
6 5 5 4 4 3 3 3 2 2 2 2 1 2 2 1 1 1 1 1 2 2 2 2 2 2 1 2 2 2 2 2 2 2 1 2 4 3 3 2 1 1 2
6 6 5 5 4 4 3 3 2 2 3 2 2 2 2 2 2 1 1 1 2 2 2 2 2 2 2 2 2 2 1 1 1 1 1 1 1 3 3 2 2 1 1
6 7 6 5 5 4 3 3 2 2 2 2 2 2 3 3 3 2 2 2 2 2 2 2 2 2 1 1 1 1 1 1 1 1 1 1 0 1 1 2 2 2 1
6 7 7 6 5 4 3 2 2 2 2 2 2 2 3 3 4 3 2 2 2 2 2 2 2 2 2 2 1 1 1 0 0 0 0 0 0 0 0 1 2 2 2
5 6 6 6 5 4 3 2 2 2 2 2 2 2 3 3 4 3 3 3 3 2 2 2 2 2 2 2 1 1 0 0 0 0 1 0 0 0 1 1 1 2 2
5 5 7 6 6 5 4 3 3 3 3 2 2 2 3 3 4 4 3 3 3 3 3 3 2 2 2 2 1 0 1 1 1 1 0 0 0 0 1 1 0 0 1
5 5 6 6 6 6 4 3 2 2 2 3 2 2 3 3 3 3 4 4 4 3 4 3 3 2 1 2 2 1 0 1 2 1 0 1 1 0 0 1 0 0 0
5 6 5 5 6 5 4 3 2 2 1 2 3 3 3 4 4 3 3 3 4 4 4 4 4 3 3 2 2 3 2 3 1 2 2 1 1 1 0 0 0 0 0
5 4 5 5 5 5 5 4 5 4 4 4 3 3 4 4 4 4 4 4 4 4 4 5 4 3 4 3 2 1 1 2 2 1 2 1 1 1 1 1 1 1 1
4 4 4 4 5 5 4 4 4 3 3 2 3 4 4 4 4 4 4 4 4 4 5 5 4 4 4 4 3 2 1 1 1 2 2 2 1 2 2 2 1 1 1
3 4 4 4 4 5 5 4 4 4 3 3 4 4 4 3 3 5 5 4 5 4 5 5 5 5 4 4 3 3 3 2 2 2 2 2 2 2 2 2 2 2 2
Wind_Direction
113 124 133 124 116 112 104 97 92 94 95 94 91 88 87 86 83 79 79 77 75 75 75 73 71 69 68 66 64 62 61 61 60 61 62 65 67 69 67 64 59 59 66
117 130 132 123 118 114 108 101 96 93 96 97 94 90 89 87 85 82 78 76 76 76 76 77 75 71 69 69 67 64 62 59 59 55 54 61 66 70 70 66 63 66 66
112 128 135 121 117 112 107 105 100 96 97 98 98 95 91 88 86 83 78 77 77 77 79 80 77 74 71 69 69 66 62 57 52 43 46 59 70 73 71 67 66 65 65
115 128 132 118 117 113 109 105 100 95 95 97 98 97 93 90 87 84 82 80 79 78 80 79 76 74 73 72 69 65 60 51 42 35 50 57 65 72 69 68 67 66 64
107 112 115 111 113 113 110 105 100 96 94 97 98 97 96 93 90 87 83 80 80 80 80 79 76 73 71 71 70 66 55 39 27 41 50 53 58 70 70 70 70 68 66
108 109 113 111 110 108 108 107 104 102 99 100 100 98 95 95 93 89 85 83 83 81 80 80 79 76 74 71 68 61 48 31 20 53 52 51 54 71 73 74 73 73 71
108 110 122 113 111 108 105 104 105 105 102 105 103 99 94 93 95 93 89 89 86 83 83 83 82 80 77 73 67 56 41 23 37 59 59 54 55 72 75 73 72 72 72
109 111 123 112 109 107 105 101 97 101 104 106 102 99 95 93 97 96 92 93 90 87 87 86 84 82 78 73 64 51 34 20 34 55 62 61 62 67 72 73 71 70 71
109 112 124 127 117 106 102 99 96 94 94 98 101 95 88 88 88 89 89 94 93 92 91 86 82 80 77 71 62 47 31 19 23 44 66 62 64 67 68 70 70 71 74
110 114 131 136 131 125 115 101 92 89 89 92 94 93 88 85 83 83 81 92 94 94 92 88 83 82 79 73 61 39 22 15 36 45 54 64 64 69 69 67 68 71 76
117 122 132 143 137 134 130 121 107 99 95 95 95 103 104 103 99 91 85 89 97 98 98 95 88 87 82 76 60 39 22 29 44 51 53 66 67 67 70 66 67 74 79
152 144 133 143 140 135 134 130 134 133 122 107 101 119 132 121 99 97 86 91 95 99 101 98 93 90 78 68 54 38 30 32 39 54 60 71 72 66 64 67 66 78 81
162 149 144 140 140 135 133 135 143 144 137 125 110 112 125 110 108 107 110 104 112 114 112 108 104 89 77 67 58 46 37 31 38 50 52 61 62 63 61 59 71 84 87
168 163 154 150 147 148 148 147 147 141 136 128 131 120 101 114 128 131 141 142 146 134 121 109 105 89 79 71 71 59 45 42 45 53 47 44 42 45 50 48 62 90 98
176 173 166 160 159 152 154 154 144 149 147 142 147 125 103 114 132 134 137 139 136 127 131 126 113 101 88 74 71 70 57 46 45 51 44 38 33 25 26 23 48 81 97
180 175 169 168 168 164 164 163 160 161 155 148 149 142 139 135 145 138 133 136 140 140 131 127 124 107 91 84 70 58 52 49 52 53 57 31 24 13 3 1 30 74 82
178 173 174 173 170 172 172 175 165 163 154 155 161 160 154 150 149 154 145 151 156 144 135 129 122 111 107 92 75 60 48 37 50 48 41 29 13 11 2 1 7 4 36
175 174 176 178 172 173 175 172 165 164 160 164 162 162 163 159 157 155 158 161 153 135 138 145 144 128 120 110 89 61 57 34 33 37 43 25 18 6 0 10 6 344 324
176 174 174 176 175 172 167 161 159 161 169 167 159 164 172 171 164 164 167 170 160 151 149 159 152 147 138 126 117 94 79 68 14 25 55 41 7 50 145 10 6 340 310
170 171 168 170 170 165 159 161 166 169 177 167 172 179 175 180 172 167 169 173 164 157 156 153 151 154 152 144 120 91 103 177 169 228 199 127 38 39 58 46 1 329 319
162 168 170 173 173 169 170 178 183 187 179 179 190 182 180 184 180 175 175 176 171 170 171 166 151 161 164 144 118 23 322 235 198 226 207 160 184 46 50 39 23 11 324
171 173 175 178 176 178 180 183 183 167 177 177 182 193 183 179 184 187 183 182 177 172 173 175 163 168 182 172 146 131 317 312 299 249 208 210 208 129 38 10 30 86 60
181 183 186 181 179 179 175 169 161 150 152 179 193 203 202 191 192 189 192 190 186 180 183 185 182 175 183 208 170 153 163 212 264 270 235 216 192 169 226 285 257 220 214
184 181 180 176 176 177 173 183 186 190 197 205 199 198 199 194 190 193 197 196 195 190 188 189 187 188 174 192 207 207 184 164 160 247 280 249 220 213 226 252 247 232 214
175 175 176 172 173 175 178 193 198 208 214 198 189 192 200 197 194 198 201 197 198 199 195 192 187 193 189 190 188 179 206 243 193 176 236 259 264 241 227 237 237 231 222
166 165 170 173 177 178 184 193 202 210 211 201 198 200 204 202 200 202 204 204 203 201 198 194 195 199 199 196 192 182 175 184 203 195 208 229 244 242 234 232 226 225 228